Weather History for KPIT - April, 2014

Change the Weather History Date:

Tuesday, April 15, 2014

  Actual Average Record
Temperature  
Mean Temperature 46 °F 51 °F  
Max Temperature 64 °F 62 °F 85 °F (1883)
Min Temperature 27 °F 40 °F 20 °F (1943)
Degree Days  
Heating Degree Days 19 14  
Month to date heating degree days 191 252  
Since 1 July heating degree days 5662 5297  
Cooling Degree Days 0 0  
Month to date cooling degree days 10 0  
Year to date cooling degree days 10 1  
Moisture  
Dew Point 34 °F    
Average Humidity 80    
Maximum Humidity 96    
Minimum Humidity 63    
Precipitation  
Precipitation 0.25 in 0.11 in 0.87 in (1914)
Month to date precipitation 2.40 1.56  
Year to date precipitation 8.70 9.60  
Snow  
Snow 0.10 in 0.10 in 0.50 in (1962)
Month to date snowfall 0.1 1.2  
Since 1 July snowfall 63.4 41.6  
Snow Depth 0.00 in    
Sea Level Pressure  
Sea Level Pressure 29.85 in    
Wind  
Wind Speed 16 mph (NW)    
Max Wind Speed 26 mph    
Max Gust Speed 34 mph    
Visibility 6 miles    
Events Rain , Snow    
T = Trace of Precipitation, MM = Missing Value Source: NWS Daily Summary

Daily Weather History Graph

Daily Weather History Graph

Search for Another Location

Airport or City:

Trip Planner

Search our weather history database for the weather conditions in past years. The results will help you decide how hot, cold, wet, or windy it might be!

Date:

Astronomy

Apr. 15, 2014 Rise Set
Actual Time 6:42 AM EDT 7:59 PM EDT
Civil Twilight 6:14 AM EDT 8:28 PM EDT
Nautical Twilight 5:40 AM EDT 9:02 PM EDT
Astronomical Twilight 5:04 AM EDT 9:37 PM EDT
Moon 8:39 PM EDT (4/15) 6:49 AM EDT (4/15)
Length of Visible Light 14h 14m
Length of Day
13h 17m
Full, 100% of the Moon is Illuminated
Apr 15
Full
Apr 22
Last Quarter
Apr 29
New
May 6
First Quarter
May 14
Full

Hourly Weather History & Observations

Time (EDT) Temp. Windchill Dew Point Humidity Pressure Visibility Wind Dir Wind Speed Gust Speed Precip Events Conditions
12:51 AM 62.1 °F - 53.1 °F 72% 29.62 in 10.0 mi South 6.9 mph - N/A   Mostly Cloudy
1:51 AM 62.6 °F - 53.6 °F 72% 29.58 in 10.0 mi South 6.9 mph - N/A   Overcast
2:51 AM 64.0 °F - 54.0 °F 70% 29.57 in 10.0 mi South 8.1 mph - N/A   Overcast
3:51 AM 63.0 °F - 54.0 °F 72% 29.54 in 10.0 mi South 5.8 mph - N/A   Overcast
4:34 AM 55.0 °F - 52.0 °F 89% 29.53 in 9.0 mi NW 10.4 mph 21.9 mph 0.00 in Rain Rain
4:51 AM 52.0 °F - 51.1 °F 97% 29.57 in 5.0 mi NW 20.7 mph 33.4 mph 0.02 in Rain Light Rain
5:51 AM 45.0 °F 36.0 °F 43.0 °F 93% 29.61 in 5.0 mi NNW 25.3 mph - 0.00 in Rain Light Rain
6:51 AM 39.9 °F 30.0 °F 37.0 °F 89% 29.66 in 5.0 mi NNW 21.9 mph - 0.01 in Rain Light Rain
7:51 AM 37.0 °F 27.7 °F 35.1 °F 93% 29.71 in 4.0 mi NNW 16.1 mph - 0.00 in Rain Light Rain
8:51 AM 35.1 °F 24.1 °F 33.1 °F 92% 29.75 in 5.0 mi NNW 19.6 mph 25.3 mph 0.02 in Rain Light Rain
8:57 AM 36.0 °F 25.6 °F 33.1 °F 89% 29.73 in 4.0 mi NW 18.4 mph 25.3 mph 0.00 in Rain Light Rain
9:25 AM 35.1 °F 25.5 °F 33.1 °F 92% 29.76 in 1.0 mi NW 15.0 mph - 0.01 in Snow Light Snow
9:36 AM 34.0 °F 23.8 °F 32.0 °F 92% 29.77 in 3.0 mi NW 16.1 mph - 0.02 in Snow Light Snow
9:51 AM 34.0 °F 25.5 °F 32.0 °F 92% 29.81 in 1.0 mi WNW 11.5 mph - 0.03 in Snow Light Snow
10:51 AM 34.0 °F 25.5 °F 32.0 °F 92% 29.86 in 2.0 mi WNW 11.5 mph - 0.01 in Snow Light Snow
11:51 AM 36.0 °F 25.6 °F 32.0 °F 86% 29.87 in 2.0 mi NW 18.4 mph - 0.00 in Snow Light Snow
12:51 PM 35.6 °F 25.5 °F 30.2 °F 81% 29.86 in 5.0 mi WNW 17.3 mph - N/A   Haze
1:28 PM 34.0 °F 24.2 °F 30.0 °F 85% 29.87 in 3.0 mi WNW 15.0 mph - 0.00 in Snow Light Snow
1:51 PM 33.8 °F 23.2 °F 30.2 °F 87% 29.89 in 1.0 mi WNW 17.3 mph - N/A Snow Light Snow
2:39 PM 34.0 °F 24.2 °F 30.9 °F 89% 29.90 in 4.0 mi NW 15.0 mph - 0.00 in Snow Light Snow
2:51 PM 33.1 °F 21.5 °F 30.0 °F 89% 29.93 in 7.0 mi WNW 19.6 mph 26.5 mph 0.00 in Snow Light Snow
3:51 PM 32.0 °F 19.5 °F 26.6 °F 80% 29.94 in 10.0 mi WNW 21.9 mph 26.5 mph N/A   Overcast
4:51 PM 32.0 °F 21.2 °F 25.0 °F 75% 30.01 in 9.0 mi WNW 16.1 mph - 0.00 in Snow Light Snow
5:51 PM 30.9 °F 19.1 °F 24.1 °F 76% 30.03 in 8.0 mi NW 18.4 mph - 0.00 in Snow Light Snow
6:51 PM 30.9 °F 18.7 °F 21.0 °F 67% 30.05 in 10.0 mi NW 19.6 mph 29.9 mph 0.00 in   Mostly Cloudy
7:51 PM 28.9 °F 17.3 °F 23.0 °F 78% 30.11 in 8.0 mi NW 16.1 mph - 0.00 in Snow Light Snow
8:51 PM 30.0 °F 17.9 °F 19.0 °F 64% 30.16 in 8.0 mi NNW 18.4 mph 26.5 mph 0.00 in Snow Light Snow
9:51 PM 30.0 °F 19.5 °F 19.9 °F 66% 30.19 in 10.0 mi NW 13.8 mph - 0.00 in Snow Light Snow
10:51 PM 28.9 °F 19.8 °F 19.9 °F 69% 30.22 in 10.0 mi WNW 10.4 mph - 0.00 in   Mostly Cloudy
11:51 PM 28.0 °F 18.6 °F 19.9 °F 72% 30.23 in 10.0 mi WNW 10.4 mph - N/A   Scattered Clouds